Overview Statistics Trail Chart Weather Telemetry Raw packets
 

This is the latest recevied weather packets stored in our database for station/object KQ4KX. If no packets are shown the sender has not sent any weather packets the latest 10 day(s).

<< 65 66 67 68 69 70 71 >>
Time Temp. Humidity Pressure Rain* Wind** Luminosity Snow
1788125005 28.33° C 82% 1016.6 hPa 0 mm - - -
1788124705 28.33° C 82% 1016.5 hPa 0 mm - - -
1788124075 28.89° C 82% 1016.5 hPa 0 mm - - -
1788123902 28.89° C 81% 1016.7 hPa 0 mm - - -
1788123745 28.89° C 81% 1016.7 hPa 0 mm - - -
1788123445 28.89° C 83% 1016.7 hPa 0 mm - - -
1788123145 28.89° C 84% 1016.8 hPa 0 mm - - -
1788122845 28.89° C 83% 1016.9 hPa 0 mm - - -
1788122215 28.89° C 86% 1016.7 hPa 0 mm - - -
1788121915 28.89° C 85% 1016.5 hPa 0 mm - - -
1788121615 29.44° C 86% 1016.6 hPa 0 mm - - -
1788120955 29.44° C 86% 1016.5 hPa 0 mm - - -
1788120751 29.44° C 87% 1016.5 hPa 0 mm - - -
1788120655 29.44° C 87% 1016.5 hPa 0 mm - - -
1788120355 29.44° C 86% 1016.4 hPa 0 mm - - -
1788120198 29.44° C 85% 1016.4 hPa 0 mm - - -
1788120055 29.44° C 85% 1016.4 hPa 0 mm - - -
1788119725 29.44° C 85% 1016.4 hPa 0 mm - - -
1788119395 29.44° C 83% 1016.5 hPa 0 mm - - -
1788118934 30.56° C 82% 1016.5 hPa 0 mm - - -
1788118765 30.56° C 82% 1016.5 hPa 0 mm - - -
1788118639 31.11° C 79% 1016.6 hPa 0 mm - - -
1788118465 31.11° C 79% 1016.6 hPa 0 mm - - -
1788117835 32.22° C 75% 1016.5 hPa 0 mm - - -
1788117601 33.33° C 72% 1016.4 hPa 0 mm - - -

* Rain latest hour (hover to see other rain measurements)
** Current wind speed in m/s (hover to see current wind gust speed)